Weather History for Fairbanks, AK

Change the Weather History Date:

Saturday, October 22, 2011

  Actual Average Record
Temperature  
Mean Temperature 18 °F 19 °F  
Max Temperature 26 °F 27 °F 50 °F (1938)
Min Temperature 10 °F 12 °F -16 °F (1958)
Degree Days  
Heating Degree Days 47 46  
Month to date heating degree days 700 812  
Since 1 July heating degree days 1515 1806  
Cooling Degree Days 0 0  
Month to date cooling degree days 0 0  
Year to date cooling degree days 39 61  
Moisture  
Dew Point 14 °F    
Average Humidity 87    
Maximum Humidity 93    
Minimum Humidity 74    
Precipitation  
Precipitation 0.01 in 0.03 in 0.40 in (1921)
Month to date precipitation 0.22 0.62  
Year to date precipitation 8.03 9.29  
Snow  
Snow T in 0.40 in 5.90 in (1991)
Month to date snowfall 2.0 7.0  
Since 1 July snowfall 2.0 8.8  
Since 1 September snowfall 2.0 8.8  
Snow Depth 1.00 in    
Sea Level Pressure  
Sea Level Pressure 29.52 in    
Wind  
Wind Speed 1 mph (SE)    
Max Wind Speed 5 mph    
Max Gust Speed -    
Visibility 8 miles    
Events Fog , Snow    
T = Trace of Precipitation, MM = Missing Value Source: NWS Daily Summary

Daily Weather History Graph

Daily Weather History Graph

Search for Another Location

Airport:

Trip Planner

Search our weather history database for the weather conditions in past years. The results will help you decide how hot, cold, wet, or windy it might be!

Date:

Astronomy

Oct. 22, 2011 Rise Set
Actual Time 9:05 AM AKDT 6:04 PM AKDT
Civil Twilight 8:14 AM AKDT 6:56 PM AKDT
Nautical Twilight 7:17 AM AKDT 7:53 PM AKDT
Astronomical Twilight 6:20 AM AKDT 8:49 PM AKDT
Moon 2:35 AM AKDT (10/22) 4:49 PM AKDT (10/22)
Length of Visible Light 10h 41m
Length of Day
8h 58m
Waning Crescent, 22% of the Moon is Illuminated
Oct 22
Waning Crescent
Oct 26
New
Nov 2
First Quarter
Nov 10
Full
Nov 18
Last Quarter

Hourly Weather History & Observations

Time (AKDT) Temp. Windchill Dew Point Humidity Pressure Visibility Wind Dir Wind Speed Gust Speed Precip Events Conditions
12:53 AM 19.0 °F 13.9 °F 16.0 °F 88% 29.44 in 10.0 mi NNE 3.5 mph - N/A   Mostly Cloudy
1:53 AM 18.0 °F - 15.1 °F 88% 29.43 in 10.0 mi Calm Calm - N/A   Scattered Clouds
2:53 AM 16.0 °F - 12.9 °F 88% 29.43 in 10.0 mi Calm Calm - N/A   Scattered Clouds
3:53 AM 17.1 °F 10.0 °F 14.0 °F 88% 29.44 in 10.0 mi NE 4.6 mph - N/A   Scattered Clouds
4:53 AM 18.0 °F 12.7 °F 14.0 °F 84% 29.44 in 10.0 mi ENE 3.5 mph - N/A   Scattered Clouds
5:53 AM 14.0 °F - 10.0 °F 84% 29.46 in 10.0 mi Calm Calm - N/A   Scattered Clouds
6:53 AM 12.9 °F - 10.9 °F 92% 29.47 in 10.0 mi Calm Calm - N/A   Scattered Clouds
7:53 AM 14.0 °F - 10.0 °F 84% 29.48 in 10.0 mi Calm Calm - N/A   Scattered Clouds
8:51 AM 12.2 °F - 10.4 °F 92% 29.46 in 10.0 mi Calm Calm - N/A Fog Patches of Fog
8:53 AM 12.0 °F - 10.0 °F 92% 29.49 in 10.0 mi Calm Calm - N/A Fog Patches of Fog
9:53 AM 12.0 °F - 9.0 °F 88% 29.51 in 8.0 mi Calm Calm - N/A Fog Patches of Fog
10:07 AM 10.4 °F - 8.6 °F 92% 29.48 in 0.5 mi Calm Calm - N/A Fog Light Freezing Fog
10:16 AM 10.4 °F - 8.6 °F 92% 29.48 in 0.5 mi Calm Calm - N/A Fog Light Freezing Fog
10:41 AM 14.0 °F - 12.2 °F 93% 29.48 in 0.5 mi Calm Calm - N/A Fog Light Freezing Fog
10:53 AM 14.0 °F - 12.0 °F 92% 29.52 in 5.0 mi Calm Calm - N/A   Scattered Clouds
11:53 AM 19.0 °F - 15.1 °F 85% 29.53 in 10.0 mi Calm Calm - N/A Fog Patches of Fog
12:53 PM 19.9 °F - 17.1 °F 89% 29.53 in 10.0 mi Calm Calm - N/A Fog Patches of Fog
1:53 PM 25.0 °F - 19.0 °F 78% 29.53 in 10.0 mi Calm Calm - N/A Fog Patches of Fog
2:53 PM 26.6 °F - 19.4 °F 74% 29.54 in 10.0 mi Calm Calm - N/A Fog Scattered Clouds
3:53 PM 26.1 °F - 19.0 °F 75% 29.54 in 10.0 mi Calm Calm - N/A Fog Scattered Clouds
4:53 PM 25.0 °F - 18.0 °F 75% 29.54 in 10.0 mi Calm Calm - N/A   Scattered Clouds
5:53 PM 21.9 °F 17.2 °F 18.0 °F 85% 29.56 in 10.0 mi SW 3.5 mph - N/A   Mostly Cloudy
6:53 PM 19.9 °F 14.9 °F 16.0 °F 85% 29.57 in 10.0 mi SSW 3.5 mph - N/A   Scattered Clouds
7:53 PM 18.0 °F 12.7 °F 15.1 °F 88% 29.58 in 10.0 mi South 3.5 mph - N/A   Scattered Clouds
8:53 PM 17.1 °F - 14.0 °F 88% 29.60 in 10.0 mi Calm Calm - N/A   Scattered Clouds
9:53 PM 17.1 °F - 15.1 °F 92% 29.62 in 10.0 mi Calm Calm - N/A   Mostly Cloudy
10:53 PM 16.0 °F - 14.0 °F 92% 29.63 in 10.0 mi Calm Calm - 0.00 in Snow Light Snow
11:12 PM 15.8 °F - 14.0 °F 93% 29.60 in 6.0 mi Calm Calm - 0.00 in Snow Light Snow
11:53 PM 17.1 °F - 14.0 °F 88% 29.64 in 5.0 mi Calm Calm - 0.01 in Snow Light Snow